Regional Weather Roundup
Issued by NWS

Home | Current Version | Previous Version | Graphics & Text | Print | Product List | Glossary On
Versions: 1 2 3 4 5 6 7 8 9 10 11 12 13 14 15 16 17 18 19 20 21 22 23 24 25 26 27 28 29 30 31 32 33 34 35 36 37 38 39 40 41 42 43 44 45 46 47 48 49 50
000
ASUS43 KFSD 280510
RWRSD

WEATHER ROUNDUP FOR SOUTH DAKOTA
NATIONAL WEATHER SERVICE SIOUX FALLS SD
1100 PM CST FRI FEB 27 2015

NOTE: "FAIR" INDICATES FEW OR NO CLOUDS BELOW 12,000 FEET WITH NO
SIGNIFICANT WEATHER AND/OR OBSTRUCTIONS TO VISIBILITY.


SDZ001>005-009-010-012>017-280600-
NORTHWEST AND NORTH CENTRAL SOUTH DAKOTA

CITY           SKY/WX    TMP DP  RH WIND       PRES   REMARKS
BUFFALO          N/A     16   8  71 S5        29.92S WCI   9
FAITH            N/A     18   6  59 S15       30.05F WCI   4
MOBRIDGE       CLEAR     11   0  61 SE9       30.15F WCI  -2
$$

SDZ012>016-024>037-041>051-057-063-072>074-280600-
SOUTHWEST AND SOUTH CENTRAL SOUTH DAKOTA

CITY           SKY/WX    TMP DP  RH WIND       PRES   REMARKS
RAPID CTY ARPT PTCLDY    14   7  73 S12       30.02S WCI   0
PIERRE         CLEAR     14  -2  49 SE10      30.21S WCI   1
CUSTER         PTCLDY     7   3  84 SW6       29.87R WCI  -3
ELLSWORTH AFB  PTCLDY    16   8  72 S15       29.99F WCI   1
PHILIP         MOCLDY    16   6  65 S9        30.14R WCI   4
PINE RIDGE     MOCLDY    18   7  62 S13G23    30.06R WCI   5
WINNER         FAIR      16  -3  43 S14       30.23S WCI   2
$$

SDZ004>011-016>023-039-040-280600-
NORTHEAST SOUTH DAKOTA

CITY           SKY/WX    TMP DP  RH WIND       PRES   REMARKS
ABERDEEN       CLEAR      7   0  73 S17       30.31F WCI -12
WATERTOWN      CLEAR      2  -3  80 S9        30.34F WCI -13
SISSETON         N/A      4  -2  76 S9        30.37F WCI -10
$$

SDZ017-020-022-023-036>040-048>070-280600-
SOUTHEAST SOUTH DAKOTA

CITY           SKY/WX    TMP DP  RH WIND       PRES   REMARKS
SIOUX FALLS    CLEAR      7  -1  70 S13       30.42F WCI  -9
HURON          CLEAR      9   2  73 S15       30.35S WCI  -8
CHAMBERLAIN    CLEAR      8  -3  60 SE10      30.28F WCI  -6
MITCHELL       CLEAR     12   3  67 S14       30.38F WCI  -3
YANKTON        CLEAR     10   1  67 SE10      30.44F WCI  -3
$$

ABBREVIATIONS USED IN REMARKS
   TC - TEMPERATURE IN CELSIUS
  WCI - WIND CHILL INDEX
   HX - HEAT INDEX
  VSB - VISIBILITY




USA.gov is the U.S. government's official web portal to all federal, state and local government web resources and services.